Location: Newark
(33.6333°S, 78.8500°W)
Time: 23:25:19
(UTC+00:00)

Tiros 1 - Pass Details

Date: 26 October 2019
Orbit: 630 x 664 km, 48.4° (Epoch: 12 November)

Event Time Altitude Azimuth Distance (km) Brightness Sun altitude
Rises 14:29:52 0° 342° (NNW) 2,957 10.6 50.0°
Reaches altitude 10° 14:32:33 10° 355° (N) 2,048 10.0 50.5°
Maximum altitude 14:36:20 24° 49° (NE) 1,340 10.0 51.2°
Drops below altitude 10° 14:40:07 10° 102° (ESE) 2,048 10.4 51.9°
Sets 14:42:48 0° 115° (ESE) 2,958 10.9 52.4°
